Weather History for Montpelier, VT

Change the Weather History Date:

Tuesday, March 12, 2013

  Actual Average Record
Temperature  
Mean Temperature 40 °F 27 °F  
Max Temperature 46 °F 37 °F 60 °F (2012)
Min Temperature 34 °F 17 °F -8 °F (1984)
Degree Days  
Heating Degree Days 24 38  
Month to date heating degree days 385 478  
Since 1 July heating degree days 5934 6386  
Cooling Degree Days 0 0  
Month to date cooling degree days 0 0  
Year to date cooling degree days 0 0  
Moisture  
Dew Point 41 °F    
Average Humidity 87    
Maximum Humidity 100    
Minimum Humidity 73    
Precipitation  
Precipitation 0.00 in 0.07 in 1.05 in (2014)
Month to date precipitation 0.20 0.88  
Year to date precipitation 2.44 5.37  
Sea Level Pressure  
Sea Level Pressure 29.84 in    
Wind  
Wind Speed 10 mph (SSW)    
Max Wind Speed 16 mph    
Max Gust Speed 28 mph    
Visibility 6 miles    
Events Fog , Rain    
T = Trace of Precipitation, MM = Missing Value Source: NWS Daily Summary

Daily Weather History Graph

Daily Weather History Graph

Search for Another Location

Airport:

Trip Planner

Search our weather history database for the weather conditions in past years. The results will help you decide how hot, cold, wet, or windy it might be!

Date:

Astronomy

Mar. 12, 2013 Rise Set
Actual Time 7:07 AM EDT 6:52 PM EDT
Civil Twilight 6:38 AM EDT 7:21 PM EDT
Nautical Twilight 6:05 AM EDT 7:55 PM EDT
Astronomical Twilight 5:31 AM EDT 8:29 PM EDT
Moon 7:09 AM EDT (3/12) 8:09 PM EDT (3/12)
Length of Visible Light 12h 43m
Length of Day
11h 45m
New Moon, 1% of the Moon is Illuminated
Mar 12
New Moon
Mar 19
First Quarter
Mar 27
Full
Apr 3
Last Quarter
Apr 10
New

Hourly Weather History & Observations

Time (EDT) Temp. Windchill Dew Point Humidity Pressure Visibility Wind Dir Wind Speed Gust Speed Precip Events Conditions
12:51 AM 41.0 °F 37.1 °F 34.0 °F 76% 30.04 in 10.0 mi Variable 5.8 mph - N/A   Clear
1:51 AM 39.2 °F 35.0 °F 35.6 °F 87% 30.02 in 10.0 mi South 5.8 mph - N/A   Partly Cloudy
2:51 AM 41.0 °F 35.8 °F 36.0 °F 82% 30.03 in 10.0 mi South 8.1 mph - N/A   Partly Cloudy
3:51 AM 41.0 °F 39.0 °F 37.0 °F 86% 30.01 in 10.0 mi SW 3.5 mph - N/A   Mostly Cloudy
4:11 AM 41.0 °F 35.2 °F 37.4 °F 87% 29.97 in 10.0 mi South 9.2 mph - N/A   Mostly Cloudy
4:43 AM 41.0 °F 35.8 °F 37.4 °F 87% 29.97 in 7.0 mi South 8.1 mph - 0.00 in Rain Light Rain
4:51 AM 41.0 °F 37.1 °F 39.0 °F 93% 30.00 in 7.0 mi South 5.8 mph - 0.01 in Rain Light Rain
4:58 AM 41.0 °F 34.3 °F 37.4 °F 87% 29.95 in 7.0 mi SSE 11.5 mph - 0.00 in Rain Light Rain
5:51 AM 41.0 °F 36.4 °F 39.2 °F 93% 29.97 in 6.0 mi South 6.9 mph - N/A Rain Light Rain
6:46 AM 41.0 °F 33.5 °F 39.2 °F 93% 29.95 in 10.0 mi South 13.8 mph - 0.01 in Rain Light Rain
6:51 AM 41.0 °F 33.5 °F 39.9 °F 96% 29.98 in 10.0 mi South 13.8 mph - 0.01 in Rain Light Rain
7:51 AM 41.0 °F 33.9 °F 39.9 °F 96% 29.96 in 10.0 mi South 12.7 mph 21.9 mph 0.01 in Rain Light Rain
8:05 AM 42.8 °F 36.6 °F 39.2 °F 87% 29.93 in 10.0 mi South 11.5 mph - 0.00 in Rain Light Rain
8:51 AM 42.8 °F 36.6 °F 41.0 °F 93% 29.92 in 10.0 mi South 11.5 mph - N/A   Overcast
9:14 AM 42.8 °F 36.2 °F 41.0 °F 93% 29.92 in 10.0 mi South 12.7 mph - 0.00 in Rain Light Rain
9:51 AM 43.0 °F 35.7 °F 41.0 °F 93% 29.94 in 8.0 mi South 15.0 mph - 0.01 in Rain Light Rain
10:51 AM 44.1 °F 37.1 °F 42.1 °F 93% 29.93 in 7.0 mi SSE 15.0 mph - 0.02 in Rain Light Rain
11:39 AM 44.6 °F 39.2 °F 42.8 °F 93% 29.88 in 6.0 mi South 10.4 mph 21.9 mph 0.00 in Rain Light Rain
11:51 AM 44.1 °F 38.1 °F 43.0 °F 96% 29.91 in 7.0 mi South 11.5 mph 20.7 mph 0.01 in Rain Light Rain
12:30 PM 44.6 °F 36.9 °F 42.8 °F 93% 29.87 in 8.0 mi South 18.4 mph - 0.01 in Rain Light Rain
12:51 PM 45.0 °F 37.9 °F 44.1 °F 97% 29.89 in 7.0 mi South 16.1 mph 23.0 mph 0.01 in Rain Light Rain
1:23 PM 46.4 °F 41.1 °F 44.6 °F 93% 29.85 in 8.0 mi South 11.5 mph - 0.02 in Rain Light Rain
1:51 PM 46.0 °F 40.6 °F 44.1 °F 93% 29.87 in 7.0 mi South 11.5 mph - 0.03 in Rain Light Rain
2:51 PM 45.0 °F 38.9 °F 44.1 °F 97% 29.85 in 4.0 mi SSE 12.7 mph - 0.08 in Rain Rain
3:12 PM 44.6 °F 38.1 °F 44.6 °F 100% 29.81 in 4.0 mi SSE 13.8 mph - 0.03 in Rain Rain
3:51 PM 45.0 °F 40.1 °F 44.1 °F 97% 29.82 in 5.0 mi SSE 9.2 mph - 0.09 in Rain Rain
4:00 PM 44.6 °F 40.7 °F 44.6 °F 100% 29.80 in 4.0 mi SSE 6.9 mph - 0.01 in Rain Rain
4:29 PM 44.6 °F 40.2 °F 44.6 °F 100% 29.78 in 5.0 mi SSE 8.1 mph - 0.06 in Rain Rain
4:51 PM 45.0 °F 41.2 °F 44.1 °F 97% 29.80 in 4.0 mi SSE 6.9 mph - 0.11 in Rain Rain
5:39 PM 44.6 °F 39.7 °F 44.6 °F 100% 29.75 in 3.0 mi SSE 9.2 mph - 0.13 in Rain Heavy Rain
5:51 PM 44.1 °F 39.5 °F 44.1 °F 100% 29.78 in 2.5 mi SSE 8.1 mph - 0.18 in Rain Rain
6:01 PM 44.6 °F 40.7 °F 44.6 °F 100% 29.74 in 3.0 mi SSE 6.9 mph - 0.03 in Rain Rain
6:51 PM 44.1 °F 41.5 °F 44.1 °F 100% 29.74 in 5.0 mi West 4.6 mph - 0.13 in Rain Light Rain
7:03 PM 44.6 °F 41.4 °F 44.6 °F 100% 29.72 in 2.5 mi West 5.8 mph - 0.02 in Rain Rain
7:11 PM 44.6 °F 41.4 °F 44.6 °F 100% 29.72 in 2.5 mi WSW 5.8 mph - 0.04 in Rain Rain
7:23 PM 46.4 °F 44.3 °F 46.4 °F 100% 29.72 in 4.0 mi SSW 4.6 mph - 0.06 in Rain Light Rain
7:51 PM 46.0 °F 44.8 °F 46.0 °F 100% 29.75 in 4.0 mi SW 3.5 mph - 0.08 in Rain Light Rain
8:07 PM 44.6 °F - 44.6 °F 100% 29.72 in 2.0 mi Calm Calm - 0.01 in Rain Light Rain
8:13 PM 44.6 °F 43.1 °F 44.6 °F 100% 29.72 in 1.2 mi NW 3.5 mph - 0.02 in Rain Light Rain
8:15 PM 42.8 °F 40.1 °F 42.8 °F 100% 29.73 in 0.8 mi NNW 4.6 mph - 0.02 in Rain Light Rain
8:24 PM 42.8 °F 40.1 °F 42.8 °F 100% 29.73 in 0.5 mi NNW 4.6 mph - 0.03 in Fog , Rain Light Rain
8:29 PM 41.0 °F 36.4 °F 41.0 °F 100% 29.73 in 1.2 mi NW 6.9 mph - 0.03 in Rain Light Rain
8:31 PM 39.2 °F 33.0 °F 39.2 °F 100% 29.73 in 2.0 mi NW 9.2 mph - 0.04 in Rain Light Rain
8:42 PM 39.2 °F 31.2 °F 39.2 °F 100% 29.74 in 2.5 mi NW 13.8 mph 24.2 mph 0.06 in Rain Rain
8:44 PM 39.2 °F 30.8 °F 39.2 °F 100% 29.74 in 2.5 mi NW 15.0 mph 24.2 mph 0.07 in Rain Rain
8:51 PM 37.9 °F 28.9 °F 37.9 °F 100% 29.77 in 2.0 mi NW 16.1 mph 27.6 mph 0.09 in Rain Rain
8:58 PM 37.4 °F 27.2 °F 37.4 °F 100% 29.74 in 2.0 mi NW 19.6 mph 27.6 mph 0.01 in Rain Light Rain
9:17 PM 37.4 °F 27.8 °F 35.6 °F 93% 29.75 in 4.0 mi NW 17.3 mph 26.5 mph 0.02 in Rain Light Rain
9:41 PM 37.4 °F 32.8 °F 35.6 °F 93% 29.77 in 8.0 mi NNW 5.8 mph - 0.02 in Rain Light Rain
9:51 PM 35.6 °F 30.7 °F 35.6 °F 100% 29.77 in 7.0 mi NW 5.8 mph - N/A Rain Light Rain
10:51 PM 35.1 °F 28.6 °F 35.1 °F 100% 29.83 in 7.0 mi NW 8.1 mph - 0.02 in   Overcast
11:27 PM 35.6 °F 28.0 °F 33.8 °F 93% 29.81 in 10.0 mi NW 10.4 mph 24.2 mph N/A   Overcast
11:51 PM 34.0 °F 26.0 °F 33.1 °F 96% 29.85 in 10.0 mi NW 10.4 mph 19.6 mph N/A   Overcast